Flag for U.S.A. Weather past 2 weeks in Warren, Michigan, U.S.A.

Now
55 °F

Clear.


Feels Like: 55 °F
Forecast: 50 / 71 °F
Wind: No wind

Location: Detroit City Airport

Current Time: Sep 22, 2014 at 10:18:52 PM

Latest Report: Sep 22, 2014 at 9:53 PM


Visibility: 10 mi

Pressure: 30.26 "Hg

Humidity: 69%

Dew point: 45 °F

Location of WarrenLocation

Historic Weather in Warren — Graph

°F

Warren temperature yesterday

Maximum temperature yesterday: 70 °F (at 11:53 AM)
Minimum temperature yesterday: 53 °F (at 11:53 PM)
Average temperature yesterday: 63 °F

Past Weeks' High & Low Weather Summary

 TemperatureHumidityPressure
High80 °F (Sep 20, 2:53 PM)97% (Sep 9, 1:53 AM)30.37 "Hg (Sep 9, 1:53 AM)
Low44 °F (Sep 14, 6:53 AM)35% (Sep 17, 4:53 PM)29.60 "Hg (Sep 21, 6:53 AM)
Average60 °F69%30.08 "Hg
* Reported Sep 8 2:53 AM — Sep 22 8:53 PM, Warren, Weather by CustomWeather, © 2014

Note: Actual official high and low records may vary slightly from our data, if they occured in-between our weather recording intervals... More about our weather records

Advertising

Warren weather history for previous 24 hours

 ConditionsComfort  
Time TempWeatherWind HumidityBarometerVisibility
8:53 PM
Sep 22
57 °FClear.No wind62%30.23 "Hg10 mi
7:53 PM60 °FSunny.3 mph49%30.22 "Hg10 mi
6:53 PM63 °FSunny.6 mph43%30.20 "Hg10 mi
5:53 PM63 °FSunny.5 mph41%30.18 "Hg10 mi
4:53 PM63 °FSunny.6 mph41%30.19 "Hg10 mi
3:53 PM62 °FSunny.8 mph46%30.19 "Hg10 mi
2:53 PM61 °FSunny.12 mph42%30.19 "Hg10 mi
1:53 PM59 °FSunny.9 mph46%30.20 "Hg10 mi
12:53 PM58 °FSunny.7 mph50%30.22 "Hg10 mi
11:53 AM55 °FPartly sunny.8 mph53%30.22 "Hg10 mi
10:53 AM54 °FPartly sunny.8 mph53%30.20 "Hg10 mi
9:53 AM52 °FOvercast.10 mph55%30.19 "Hg10 mi
8:53 AM51 °FOvercast.7 mph59%30.17 "Hg10 mi
7:53 AM51 °FOvercast.7 mph59%30.15 "Hg10 mi
6:53 AM51 °FOvercast.8 mph56%30.12 "Hg10 mi
5:53 AM51 °FOvercast.9 mph59%30.10 "Hg10 mi
4:53 AM51 °FOvercast.7 mph61%30.08 "Hg10 mi
3:53 AM51 °FOvercast.10 mph61%30.05 "Hg10 mi
2:53 AM51 °FOvercast.12 mph63%30.05 "Hg10 mi
1:53 AM52 °FOvercast.8 mph64%30.04 "Hg10 mi
12:53 AM53 °FOvercast.8 mph64%30.02 "Hg10 mi
11:53 PM
Sep 21
53 °FMostly cloudy.13 mph69%30.00 "Hg10 mi
10:53 PM54 °FMostly cloudy.10 mph72%29.98 "Hg10 mi
Weather by CustomWeather, © 2014

See weather overviewHow to use our weather pages